Terug naar catalogus

STARLINK-11576

ActiefCommunicatieVLEO
NORAD 62993·PAYLOAD·🇺🇸 United States

Gelanceerd Feb 11, 2025 vanaf Cape Canaveral Space Force Station

Loading…

Volgende Passages (komende 24 uur)

TLE

VersSource: CelesTrak SupGP

Epoch: Sep 15, 2026, 02:17 UTC

1 62993C 25031N   26258.09562500  .00069473  00000+0  53962-3 0  2584
2 62993  43.0002 299.8794 0001538 257.2671 328.9060 15.70803155    19

Volg STARLINK-11576 in realtime met AllMySat

Download on the App Store